Willimantic, CT

12:33 PM EST on December 05, 2019 (GMT -0500)
Windham

Weather History for KIJD - October, 2019

Change the Weather History Date:

Wednesday, October 9, 2019

  Actual Average Record
Temperature  
Mean Temperature 52 °F -  
Max Temperature 55 °F 64 °F 82 °F (1990)
Min Temperature 50 °F 37 °F 22 °F (1953)
Degree Days  
Heating Degree Days 12    
Growing Degree Days 2 (Base 50)    
Moisture  
Dew Point 48 °F    
Average Humidity 83    
Maximum Humidity 93    
Minimum Humidity 74    
Precipitation  
Precipitation 0.29 in - - ()
Sea Level Pressure  
Sea Level Pressure 30.28 in    
Wind  
Wind Speed 8 mph ()    
Max Wind Speed 16 mph    
Max Gust Speed 23 mph    
Visibility 9.4 miles    
Events Rain    
Averages and records for this station are not official NWS values.
T = Trace of Precipitation, MM = Missing Value Source: Averaged Metar Reports

Daily Weather History Graph

Daily Weather History Graph

Search for Another Location

Airport or City:

Astronomy

Oct. 09, 2019 Rise Set
Actual Time 6:53 AM EDT 6:17 PM EDT
Civil Twilight 6:26 AM EDT 6:45 PM EDT
Nautical Twilight 5:53 AM EDT 7:17 PM EDT
Astronomical Twilight 5:21 AM EDT 7:49 PM EDT
Moon 4:52 PM EDT (10/9) 2:32 AM EDT (10/9)
Length of Visible Light 12h 19m
Length of Day
11h 23m
Waxing Gibbous, 85% of the Moon is Illuminated
Oct 9
Waxing Gibbous
Oct 13
Full
Oct 21
Last Quarter
Oct 27
New
Nov 4
First Quarter

Hourly Weather History & Observations

Time (EDT) Temp. Dew Point Humidity Pressure Visibility Wind Dir Wind Speed Gust Speed Precip Events Conditions
12:52 AM 50.0 °F 48.0 °F 93% 30.27 in 10.0 mi North 4.6 mph - N/A   Clear
1:52 AM 51.1 °F 48.0 °F 89% 30.26 in 10.0 mi NNE 4.6 mph - N/A   Partly Cloudy
2:52 AM 54.0 °F 48.0 °F 80% 30.25 in 10.0 mi NNE 8.1 mph - N/A   Clear
3:52 AM 55.0 °F 46.9 °F 74% 30.25 in 10.0 mi NNE 9.2 mph - N/A   Overcast
4:52 AM 55.0 °F 46.9 °F 74% 30.25 in 10.0 mi NE 11.5 mph - N/A   Overcast
5:52 AM 54.0 °F 46.0 °F 75% 30.27 in 10.0 mi NNE 11.5 mph 21.9 mph N/A   Overcast
6:52 AM 54.0 °F 46.0 °F 75% 30.28 in 10.0 mi NNE 11.5 mph - 0.00 in Rain Light Rain
7:52 AM 53.1 °F 46.9 °F 80% 30.29 in 10.0 mi NNE 10.4 mph - 0.00 in   Overcast
8:52 AM 54.0 °F 46.0 °F 75% 30.29 in 10.0 mi NE 10.4 mph - 0.00 in   Mostly Cloudy
9:52 AM 52.0 °F 46.9 °F 83% 30.30 in 8.0 mi NNE 9.2 mph - 0.02 in Rain Light Rain
10:52 AM 53.1 °F 48.0 °F 83% 30.32 in 10.0 mi NNE 9.2 mph - 0.02 in Rain Light Rain
11:52 AM 53.1 °F 50.0 °F 89% 30.32 in 8.0 mi North 6.9 mph - 0.01 in Rain Light Rain
12:52 PM 53.1 °F 50.0 °F 89% 30.32 in 8.0 mi North 9.2 mph - 0.05 in Rain Light Rain
1:52 PM 53.1 °F 51.1 °F 93% 30.31 in 4.0 mi NNE 6.9 mph - 0.07 in Rain Rain
2:52 PM 53.1 °F 50.0 °F 89% 30.30 in 8.0 mi NNE 9.2 mph - 0.07 in Rain Light Rain
3:52 PM 52.0 °F 48.9 °F 89% 30.29 in 10.0 mi NNE 11.5 mph - 0.02 in Rain Light Rain
4:52 PM 52.0 °F 48.0 °F 86% 30.28 in 10.0 mi NNE 10.4 mph - 0.02 in Rain Light Rain
5:52 PM 51.1 °F 46.9 °F 86% 30.28 in 10.0 mi NNE 16.1 mph 20.7 mph 0.00 in Rain Light Rain
6:52 PM 51.1 °F 46.9 °F 86% 30.28 in 10.0 mi NNE 9.2 mph - 0.01 in Rain Light Rain
7:52 PM 51.1 °F 48.0 °F 89% 30.29 in 10.0 mi NNE 12.7 mph 20.7 mph 0.00 in Rain Light Rain
8:52 PM 52.0 °F 46.9 °F 83% 30.28 in 10.0 mi NE 15.0 mph - 0.00 in Rain Light Rain
9:52 PM 52.0 °F 46.9 °F 83% 30.28 in 10.0 mi NNE 13.8 mph 23.0 mph 0.00 in   Overcast
10:52 PM 52.0 °F 45.0 °F 77% 30.28 in 10.0 mi NE 15.0 mph 20.7 mph N/A   Overcast
11:52 PM 52.0 °F 44.1 °F 74% 30.27 in 10.0 mi North 13.8 mph - N/A   Scattered Clouds